Location: Berlin
(52.5170°N, 13.4000°E)
Time: 00:36:06
(UTC+02:00)

ISS - Pass Details

Date: 20 July 2018
Orbit: 402 x 408 km, 51.6° (Epoch: 19 July)

Event Time Altitude Azimuth Distance (km) Brightness Sun altitude
Rises 00:37:31 0° 254° (WSW) 2,322 -0.1 -16.4°
Reaches altitude 10° 00:39:36 10° 251° (WSW) 1,464 -1.1 -16.4°
Maximum altitude 00:42:51 67° 169° (SSE) 446 -4.0 -16.5°
Drops below altitude 10° 00:46:08 10° 86° (E) 1,470 -1.0 -16.5°
Sets 00:48:13 0° 84° (E) 2,333 0.0 -16.6°
